{"data":{"norad_id":67410,"epoch":"2026-05-25T01:41:38.633856Z","epoch_age_seconds":58983,"freshness":"FRESH","line1":"1 67410U 26005G   26145.07058604  .00021784  00000+0  79830-3 0  9990","line2":"2 67410  42.9991 167.0004 0000930 264.8320  95.2425 15.27600852 20374","mean_motion":15.27600852,"eccentricity":9.3e-5,"inclination_deg":42.9991,"raan_deg":167.0004,"arg_perigee_deg":264.832,"mean_anomaly_deg":95.2425,"bstar":0.0007983,"rev_number":2037,"period_min":94.265461957205,"perigee_km":482.3485738602,"apogee_km":483.62474286066,"semimajor_km":6861.1236583604,"source":"CELESTRAK","updated_at":"2026-05-25T13:38:21.553369Z"}}